Doylestown, PA

9:43 AM EST on December 14, 2019 (GMT -0500)
Doylestown

Weather History for KDYL - October, 2019

Change the Weather History Date:

Friday, October 4, 2019

  Actual Average (KTTN) Record (KTTN)
Temperature  
Mean Temperature 57 °F -  
Max Temperature 68 °F 66 °F 86 °F (2013)
Min Temperature 46 °F 46 °F 35 °F (1974)
Degree Days  
Heating Degree Days 8    
Growing Degree Days 7 (Base 50)    
Moisture  
Dew Point 48 °F    
Average Humidity 72    
Maximum Humidity 93    
Minimum Humidity 42    
Precipitation  
Precipitation 0.00 in - - ()
Sea Level Pressure  
Sea Level Pressure 30.09 in    
Wind  
Wind Speed 6 mph (NNW)    
Max Wind Speed 18 mph    
Max Gust Speed 32 mph    
Visibility 10 miles    
Events      
Averages and records for this station are not official NWS values.
T = Trace of Precipitation, MM = Missing Value Source: NWS Daily Summary

Daily Weather History Graph

Daily Weather History Graph

Search for Another Location

Airport or City:

Astronomy

Oct. 04, 2019 Rise Set
Actual Time 6:59 AM EDT 6:38 PM EDT
Civil Twilight 6:32 AM EDT 7:05 PM EDT
Nautical Twilight 6:00 AM EDT 7:36 PM EDT
Astronomical Twilight 5:29 AM EDT 8:08 PM EDT
Moon 1:29 PM EDT (10/4) 11:04 PM EDT (10/4)
Length of Visible Light 12h 32m
Length of Day
11h 38m
Waxing Crescent, 39% of the Moon is Illuminated
Oct 4
Waxing Crescent
Oct 5
First Quarter
Oct 13
Full
Oct 21
Last Quarter
Oct 27
New

Hourly Weather History & Observations

Time (EDT) Temp. Windchill Dew Point Humidity Pressure Visibility Wind Dir Wind Speed Gust Speed Precip Events Conditions
12:54 AM 59.0 °F - 57.0 °F 93% 29.95 in 9.0 mi North 3.5 mph - N/A   Overcast
1:13 AM 59.0 °F - 57.0 °F 93% 29.95 in 10.0 mi North 4.6 mph - N/A   Overcast
1:40 AM 59.0 °F - 57.0 °F 93% 29.94 in 10.0 mi Calm Calm - N/A   Overcast
1:54 AM 59.0 °F - 57.0 °F 93% 29.94 in 10.0 mi NNW 3.5 mph - N/A   Overcast
2:54 AM 59.0 °F - 55.9 °F 90% 29.93 in 10.0 mi Calm Calm - N/A   Overcast
3:54 AM 59.0 °F - 55.9 °F 90% 29.94 in 10.0 mi NW 3.5 mph - N/A   Overcast
4:15 AM 59.0 °F - 55.9 °F 90% 29.95 in 10.0 mi West 3.5 mph - N/A   Overcast
4:28 AM 59.0 °F - 57.0 °F 93% 29.95 in 10.0 mi WNW 4.6 mph - N/A   Overcast
4:54 AM 60.1 °F - 57.0 °F 90% 29.96 in 10.0 mi WNW 6.9 mph - N/A   Overcast
5:26 AM 59.0 °F - 57.0 °F 93% 29.97 in 10.0 mi Variable 5.8 mph - N/A   Scattered Clouds
5:54 AM 59.0 °F - 55.9 °F 90% 29.97 in 10.0 mi NW 4.6 mph - N/A   Clear
6:54 AM 59.0 °F - 55.0 °F 87% 29.99 in 10.0 mi WNW 5.8 mph - N/A   Clear
7:54 AM 57.9 °F - 52.0 °F 81% 30.01 in 10.0 mi West 4.6 mph - N/A   Clear
8:54 AM 61.0 °F - 52.0 °F 72% 30.04 in 10.0 mi NW 8.1 mph - N/A   Clear
9:54 AM 64.9 °F - 52.0 °F 63% 30.06 in 10.0 mi North 12.7 mph 18.4 mph N/A   Partly Cloudy
10:54 AM 64.0 °F - 50.0 °F 60% 30.08 in 10.0 mi NNW 9.2 mph - N/A   Overcast
11:54 AM 66.0 °F - 46.0 °F 48% 30.10 in 10.0 mi NNW 18.4 mph 32.2 mph N/A   Partly Cloudy
12:54 PM 64.9 °F - 44.1 °F 47% 30.13 in 10.0 mi NNW 15.0 mph 26.5 mph N/A   Partly Cloudy
1:54 PM 66.9 °F - 43.0 °F 42% 30.14 in 10.0 mi North 13.8 mph 25.3 mph N/A   Scattered Clouds
2:54 PM 63.0 °F - 42.1 °F 46% 30.16 in 10.0 mi North 12.7 mph 21.9 mph N/A   Mostly Cloudy
3:54 PM 61.0 °F - 41.0 °F 48% 30.17 in 10.0 mi North 10.4 mph 23.0 mph N/A   Mostly Cloudy
4:54 PM 61.0 °F - 39.9 °F 46% 30.18 in 10.0 mi North 12.7 mph 18.4 mph N/A   Mostly Cloudy
5:54 PM 57.0 °F - 37.9 °F 49% 30.22 in 10.0 mi North 12.7 mph 19.6 mph N/A   Clear
6:54 PM 53.1 °F - 37.9 °F 57% 30.24 in 10.0 mi North 6.9 mph - N/A   Clear
7:54 PM 51.1 °F - 37.9 °F 61% 30.26 in 10.0 mi North 5.8 mph - N/A   Clear
8:54 PM 50.0 °F - 37.9 °F 63% 30.28 in 10.0 mi North 9.2 mph - N/A   Clear
9:54 PM 48.9 °F - 37.9 °F 66% 30.31 in 10.0 mi NNE 4.6 mph - N/A   Clear
10:54 PM 48.0 °F - 37.0 °F 66% 30.33 in 10.0 mi Calm Calm - N/A   Clear
11:54 PM 46.0 °F 43.9 °F 37.0 °F 71% 30.35 in 10.0 mi North 4.6 mph - N/A   Clear